STARLINK-34535, 64698

Orbit data source: Space-Track

STARLINK-34535, 64698 is a payload satellite owned by SpaceX/Seattle (US) in LEO that was launched on Sat, 28 Jun 2025 UTC via an FALCON 9 launch vehicle from the Air Force Western Test Range (AFWTR). Payload-class satellites include a variety of spacecraft equipped with specific instruments for various scientific and technological missions. These include communications satellites like Starlink; space stations such as the ISS; scientific satellites like the Hubble; Earth observation satellites from companies like Planet Labs, Umbra, and HawkEye 360; GPS; miniature CubeSats for education and research; and military/defense satellites.

Loading next visibility...
Identifier
64698, 2025-142C
Orbit
LEO
Country
Flag of USUS
Related business
Manufacturer
SpaceX/Seattle
Mission
Operational Commercial Communications
Bus & Motor
STARLINK V2MO, Unknown motor
Mass
575 kg wet, ~530 kg dry
Launch date (UTC)
2025-06-28 (11 months ago)
Launch vehicle
FALCON 9
Launch site
Air Force Western Test Range (AFWTR)
Object type
Payload
Rocket body
Debris
Shape & HBR
Box + 2 Pan, 17.7 m
Radar Cross Section
36.964 m², Large (>1 m²)

Expand to show TLE details & history
Last TLE update: 9 hours ago

TLE from 9 hours ago
0 STARLINK-34535
1 64698U 25142C   26145.37132632  .00000605  00000-0  58536-4 0  9994
2 64698  70.0001 121.2265 0004403 265.6981  94.3675 14.98333866 50954
Epoch: 2026-05-25T08:54Z
TLE epoch observation values (Epoch: 2026-05-25T08:54:42.594Z)
Latitude
Longitude
104.58895°
Altitude
574.702 km
Speed
7.574 km/s
True Right ascension
08h 04m 54s
True Declination
0° 00' 00"
Sunlit
Object was in daylight at epoch
Visualization orbit readout
Latitude
Unknown
Longitude
Unknown
Altitude
Unknown
Speed
Unknown
Apparent Right ascension
Unknown
Apparent Declination
Unknown
Sunlit
N/A
Visualization observer readout
Local Sidereal Time
03:09:56
Azimuth
Unknown
Elevation
Unknown
Doppler factor
Unknown
Orbital elements
Apogee altitude
573.051 km
Perigee altitude
566.933 km
Semi-major axis
6,948.129 km
Eccentricity
0.00044
Inclination
70.0001°
RAAN
121.2265°
Arg. of periapsis
265.6981°
True anomaly
94.41781°
Mean anomaly
94.3675°
Eccentric anomaly
94.39265°
Mean motion
3.7475 °/min
Orbital period
96.06 mins
BSTAR
0.000058536
Loading maneuver chart data...
Computing Atmospheric mass density...
Loading historical data...
Loading historical data...
Loading historical data...
Loading historical data...
Loading historical data...
Loading historical data...
Loading historical data...

Documentation

Showing up to 5 results
|